STARLINK-33691, 63462

Orbit data source: Space-Track

STARLINK-33691, 63462 is a payload satellite owned by SpaceX/Seattle (US) in LEO that was launched on Sun, 06 Apr 2025 UTC via an FALCON 9 launch vehicle from the Air Force Eastern Test Range (AFETR). Payload-class satellites include a variety of spacecraft equipped with specific instruments for various scientific and technological missions. These include communications satellites like Starlink; space stations such as the ISS; scientific satellites like the Hubble; Earth observation satellites from companies like Planet Labs, Umbra, and HawkEye 360; GPS; miniature CubeSats for education and research; and military/defense satellites.

Loading next visibility...
Identifier
63462, 2025-070C
Orbit
LEO
Country
Flag of USUS
Related business
Manufacturer
SpaceX/Seattle
Mission
Operational Commercial Communications
Bus & Motor
STARLINK V2MO, Unknown motor
Mass
575 kg wet, ~530 kg dry
Launch date (UTC)
2025-04-06 (1 year ago)
Launch vehicle
FALCON 9
Launch site
Air Force Eastern Test Range (AFETR)
Object type
Payload
Rocket body
Debris
Shape & HBR
Box + 2 Pan, 17.7 m
Radar Cross Section
36.964 m², Large (>1 m²)

Expand to show TLE details & history
Last TLE update: 7 hours ago

TLE from 7 hours ago
0 STARLINK-33691
1 63462U 25070C   26169.92869891  .00023932  00000-0  87661-3 0  9991
2 63462  43.0060  47.7146 0002796 270.5679  89.4852 15.27570016 68414
Epoch: 2026-06-18T22:17Z
TLE epoch observation values (Epoch: 2026-06-18T22:17:19.585Z)
Latitude
-0.00006°
Longitude
166.21795°
Altitude
482.838 km
Speed
7.626 km/s
True Right ascension
03h 10m 51s
True Declination
0° 00' 00"
Sunlit
Object was in daylight at epoch
Visualization orbit readout
Latitude
Unknown
Longitude
Unknown
Altitude
Unknown
Speed
Unknown
Apparent Right ascension
Unknown
Apparent Declination
Unknown
Sunlit
N/A
Visualization observer readout
Local Sidereal Time
15:37:22
Azimuth
Unknown
Elevation
Unknown
Doppler factor
Unknown
Orbital elements
Apogee altitude
486.942 km
Perigee altitude
483.104 km
Semi-major axis
6,863.16 km
Eccentricity
0.00028
Inclination
43.006°
RAAN
47.7146°
Arg. of periapsis
270.5679°
True anomaly
89.51724°
Mean anomaly
89.4852°
Eccentric anomaly
89.50122°
Mean motion
3.81731 °/min
Orbital period
94.31 mins
BSTAR
0.00087661
Loading maneuver chart data...
Computing Atmospheric mass density...
Loading historical data...
Loading historical data...
Loading historical data...
Loading historical data...
Loading historical data...
Loading historical data...
Loading historical data...

Documentation

Showing up to 5 results
|